This is the latest recevied weather packets stored in our database for station/object ON7AMI-5. If no packets are shown the sender has not sent any weather packets the latest 1 day(s).
| Time | Temp. | Humidity | Pressure | Rain* | Wind** | Luminosity | Snow |
|---|---|---|---|---|---|---|---|
| 1778025328 | 10° C | 92% | 1010.7 hPa | 0 mm | 4.02 m/s, 23° | - | - |
| 1778025031 | 10° C | 92% | 1010.7 hPa | 0 mm | 2.24 m/s, 22° | - | - |
| 1778024735 | 10° C | 92% | 1010.7 hPa | 0 mm | 3.13 m/s, 37° | - | - |
| 1778024430 | 10° C | 92% | 1010.7 hPa | 0 mm | 5.81 m/s, 29° | - | - |
| 1778024129 | 10° C | 92% | 1010.7 hPa | 0 mm | 3.13 m/s, 23° | - | - |
| 1778023835 | 10.56° C | 92% | 1010.7 hPa | 0 mm | 3.13 m/s, 35° | - | - |
| 1778023535 | 10.56° C | 92% | 1010.7 hPa | 0 mm | 4.02 m/s, 37° | - | - |
| 1778023229 | 10.56° C | 92% | 1010.7 hPa | 0 mm | 4.02 m/s, 38° | - | - |
| 1778022935 | 10.56° C | 92% | 1010.7 hPa | 0 mm | 3.58 m/s, 24° | - | - |
| 1778022628 | 10.56° C | 92% | 1010.7 hPa | 0 mm | 3.13 m/s, 14° | - | - |
| 1778022335 | 10.56° C | 92% | 1010.8 hPa | 0 mm | 2.24 m/s, 39° | - | - |
| 1778022035 | 10.56° C | 92% | 1010.8 hPa | 0 mm | 3.13 m/s, 33° | - | - |
| 1778021731 | 10.56° C | 92% | 1010.8 hPa | 0 mm | 4.92 m/s, 38° | - | - |
| 1778021435 | 10.56° C | 92% | 1010.8 hPa | 0 mm | 0.89 m/s, 16° | - | - |
| 1778021135 | 10.56° C | 92% | 1010.8 hPa | 0 mm | 2.24 m/s, 40° | - | - |
| 1778020839 | 10.56° C | 92% | 1010.8 hPa | 0 mm | 1.79 m/s, 21° | - | - |
| 1778020538 | 10.56° C | 92% | 1010.8 hPa | 0 mm | 0 m/s | - | - |
| 1778020239 | 10.56° C | 92% | 1010.8 hPa | 0 mm | 0 m/s | - | - |
| 1778019939 | 10.56° C | 92% | 1010.8 hPa | 0 mm | 1.34 m/s, 29° | - | - |
| 1778019639 | 10.56° C | 92% | 1010.8 hPa | 0 mm | 0.89 m/s, 42° | - | - |
| 1778019339 | 11.11° C | 92% | 1010.8 hPa | 0 mm | 2.24 m/s, 61° | - | - |
| 1778019039 | 11.11° C | 92% | 1010.9 hPa | 0 mm | 1.34 m/s, 0° | - | - |
| 1778018729 | 11.11° C | 92% | 1010.9 hPa | 0 mm | 2.68 m/s, 43° | - | - |
| 1778018430 | 11.11° C | 92% | 1010.9 hPa | 0 mm | 1.79 m/s, 36° | - | - |
| 1778018135 | 11.11° C | 92% | 1010.9 hPa | 0 mm | 3.13 m/s, 33° | - | - |
* Rain latest hour (hover to see other rain measurements)
** Current wind speed in m/s (hover to see current wind gust speed)